Weather in Saada

Yemen     16°56′18″N   43°45′42″E
temp.,
°C
wind,
m/s
gust,
m/s
humid.,
%
clouds,
%
prec.,
mm/h
press.,
hPa
HPBL,
m
13 june, sun
sun1300:00+22nne11195 0.0 101213
03:00+20nw01227 0.0 101111
06:00+20n112380 0.0 101211
09:00+27ne6913100 0.0 10132327
12:00+30ne77794 0.0 10112787
15:00+31ne667100 0.0 10083534
18:00+29ne88866 0.0 10082222
21:00+24ne5911100 0.0 1012165
14 june, mon
mon1400:00+21n1214100 0.0 101211
03:00+19nnw1215100 0.0 101111
06:00+19nnw221543 0.0 101311
09:00+26nne578100 0.0 10122457
12:00+29nne54695 0.0 10103286
15:00+31nne655100 0.0 10073704
18:00+29ene78672 0.0 10071376
21:00+22wnw1128100 0.0 101212
15 june, tue
tue1500:00+20wnw112715 0.0 101111
03:00+19w1121100 0.0 101111
06:00+19w111897 0.0 101211
09:00+27nne24101 0.0 10122606
12:00+30nne4372 0.0 10103748
15:00+31ne55665 0.0 10064317
18:00+28wnw15205 0.0 10081496
21:00+23wsw234890 0.0 101158
16 june, wed
wed1600:00+21w224882 0.0 101111
03:00+20wnw1135100 0.0 101111
06:00+20wsw1126100 0.0 101111
09:00+28n1496 0.0 10111865
12:00+32ene567100 0.0 10084426
15:00+33e76898 0.0 10064680
18:00+29sw141851 0.0 1008561
21:00+24sw224876 0.0 101133
17 june, thu
thu1700:00+22wsw01545 0.0 101111
03:00+20w115070 0.0 101011
06:00+21w1138100 0.0 101111
09:00+28ene241699 0.0 10111622
12:00+33ene76891 0.0 10084761
15:00+33ene106881 0.0 10064707
18:00+30ene88981 0.0 10082247
21:00+24sse222862 0.0 101113